Hourly Data Report for October 12, 2014

All times are specified in Local Standard Time (LST). Add 1 hour to adjust for Daylight Saving Time where and when it is observed.

MONCTON INTL A
NEW BRUNSWICK

46°06'44.000" N
64°40'43.000" W
70.70 m
8103201
71705
YQM

Download Data

Hourly Data (October 2014)
Hourly Data Report for October 12, 2014
Temp Definition
°C
Dew Point Temp Definition
°C
Rel Hum Definition
%
Wind Dir Definition
10's deg

Wind Spd Definition
km/h
Visibility Definition
km
Stn Press Definition
kPa
Hmdx Definition


Wind Chill Definition


Weather Definition


TIME
00:00 Legend Double Dagger 4.0 3.1 94 23 13 24.1 100.73     LegendNANA
01:00 Legend Double Dagger 3.5 2.8 95 24 15 19.3 100.68     LegendNANA
02:00 Legend Double Dagger 2.8 2.1 95 22 16 12.9 100.70     Mainly Clear
03:00 Legend Double Dagger 2.1 1.5 96 23 13 0.8 100.67     Fog
04:00 Legend Double Dagger 2.0 1.4 96 22 13 0.8 100.68     Fog
05:00 Legend Double Dagger 1.8 1.2 96 22 14 0.8 100.71     Fog
06:00 Legend Double Dagger 1.6 1.0 96 23 16 0.8 100.75     Fog
07:00 Legend Double Dagger 1.1 0.5 96 22 15 24.1 100.83     LegendNANA
08:00 Legend Double Dagger 2.7 2.1 96 22 16 24.1 100.90     Clear
09:00 Legend Double Dagger 5.4 3.6 88 24 11 24.1 100.95     LegendNANA
10:00 Legend Double Dagger 8.5 3.4 70 31 20 24.1 100.98     LegendNANA
11:00 Legend Double Dagger 10.1 3.4 63 28 15 24.1 100.99     Mainly Clear
12:00 Legend Double Dagger 10.8 3.2 59 31 15 24.1 101.03     LegendNANA
13:00 Legend Double Dagger 11.6 2.7 54 28 17 24.1 101.02     LegendNANA
14:00 Legend Double Dagger 12.8 2.1 48 33 19 24.1 101.01     Mainly Clear
15:00 Legend Double Dagger 12.5 0.6 44 30 21 24.1 101.06     LegendNANA
16:00 Legend Double Dagger 12.7 1.1 45 29 14 24.1 101.08     LegendNANA
17:00 Legend Double Dagger 11.4 0.8 48 31 12 24.1 101.14     Clear
18:00 Legend Double Dagger 9.7 1.4 56 32 7 24.1 101.20     LegendNANA
19:00 Legend Double Dagger 8.7 2.5 65 36 2 24.1 101.28     LegendNANA
20:00 Legend Double Dagger 6.9 0.4 63 28 11 24.1 101.33     Clear
21:00 Legend Double Dagger 4.0 1.6 84 23 11 24.1 101.37     LegendNANA
22:00 Legend Double Dagger 3.7 0.4 79 21 14 24.1 101.41     LegendNANA
23:00 Legend Double Dagger 3.7 0.4 79 24 16 24.1 101.44     Clear

Notes on Data Quality.

Legend

  • E = Estimated
  • M = Missing
  • NA = Not Available
  • ‡ = Partner data that is not subject to review by the National Climate Archives
Date modified: